Location: Lane
(33.5226°N, 79.8788°W)
Time: 23:10:16
(UTC+00:00)

SR - Pass Details

Date: 04 October 2022
Orbit: 577 x 875 km, 66.7° (Epoch: 26 November)

Event Time Altitude Azimuth Distance (km) Brightness Sun altitude
Rises 11:08:44 0° 333° (NNW) 3,266 ? -2.4°
Reaches altitude 10° 11:11:14 10° 334° (NNW) 2,288 ? -1.8°
Maximum altitude 11:16:28 89° 246° (WSW) 712 ? -0.7°
Drops below altitude 10° 11:21:11 10° 156° (SSE) 2,077 ? 0.2°
Sets 11:23:23 0° 156° (SSE) 2,943 ? 0.7°
